| time (UTC) | temp F | wind direction | speed MPH | gust MPH | rain 1hr in | rain 24hr in | rain mn in | humidity % | barometer mb |
| 20260503055002 | 42 | 97 | 1.0 | 2.0 | 0.00 | 0.03 | 0.00 | 91 | 1019.9 |
| 20260503054521 | 42 | 97 | 0.0 | 2.0 | 0.00 | 0.03 | 0.00 | 91 | 1019.9 |
| 20260503054005 | 42 | 97 | 0.0 | 2.0 | 0.00 | 0.03 | 0.00 | 91 | 1019.9 |
| 20260503053505 | 42 | 97 | 1.0 | 2.0 | 0.00 | 0.03 | 0.00 | 91 | 1019.8 |
| 20260503053015 | 42 | 97 | 0.0 | 1.0 | 0.00 | 0.03 | 0.00 | 91 | 1019.8 |
| 20260503052505 | 42 | 97 | 0.0 | 1.0 | 0.00 | 0.03 | 0.00 | 91 | 1019.8 |
| 20260503052006 | 42 | 97 | 0.0 | 2.0 | 0.00 | 0.03 | 0.00 | 91 | 1019.8 |
| 20260503051514 | 42 | 97 | 0.0 | 2.0 | 0.00 | 0.03 | 0.00 | 91 | 1019.8 |
| 20260503051008 | 42 | 97 | 1.0 | 2.0 | 0.00 | 0.03 | 0.00 | 90 | 1019.7 |
| 20260503050505 | 42 | 97 | 0.0 | 2.0 | 0.00 | 0.03 | 0.00 | 90 | 1019.7 |
| 20260503050007 | 42 | 97 | 0.0 | 0.0 | 0.00 | 0.03 | 0.00 | 90 | 1019.6 |
| 20260503045503 | 42 | 97 | 0.0 | 0.0 | 0.00 | 0.03 | 0.03 | 90 | 1019.6 |
| 20260503045002 | 42 | 97 | 0.0 | 0.0 | 0.00 | 0.03 | 0.03 | 90 | 1019.5 |
| 20260503044513 | 42 | 97 | 0.0 | 1.0 | 0.00 | 0.03 | 0.03 | 90 | 1019.5 |
| 20260503044004 | 42 | 97 | 0.0 | 1.0 | 0.00 | 0.03 | 0.03 | 89 | 1019.5 |
| 20260503043503 | 42 | 97 | 0.0 | 2.0 | 0.00 | 0.03 | 0.03 | 89 | 1019.4 |
| 20260503043008 | 42 | 97 | 0.0 | 2.0 | 0.00 | 0.03 | 0.03 | 89 | 1019.5 |
| 20260503042502 | 43 | 97 | 0.0 | 2.0 | 0.00 | 0.03 | 0.03 | 89 | 1019.5 |
| 20260503042002 | 43 | 97 | 0.0 | 2.0 | 0.00 | 0.03 | 0.03 | 89 | 1019.4 |
| 20260503041510 | 43 | 97 | 0.0 | 0.0 | 0.00 | 0.03 | 0.03 | 89 | 1019.4 |
| 20260503041003 | 43 | 97 | 0.0 | 1.0 | 0.00 | 0.03 | 0.03 | 89 | 1019.4 |
| 20260503040506 | 44 | 97 | 0.0 | 1.0 | 0.00 | 0.03 | 0.03 | 89 | 1019.3 |
| 20260503040014 | 44 | 97 | 0.0 | 2.0 | 0.00 | 0.03 | 0.03 | 89 | 1019.3 |
| 20260503035503 | 44 | 97 | 0.0 | 2.0 | 0.00 | 0.03 | 0.03 | 89 | 1019.3 |
| 20260503035003 | 44 | 97 | 0.0 | 2.0 | 0.00 | 0.03 | 0.03 | 89 | 1019.3 |
| 20260503034512 | 45 | 97 | 0.0 | 0.0 | 0.00 | 0.03 | 0.03 | 89 | 1019.3 |
| 20260503034002 | 45 | 97 | 0.0 | 0.0 | 0.00 | 0.03 | 0.03 | 89 | 1019.3 |
| 20260503033501 | 45 | 97 | 0.0 | 0.0 | 0.00 | 0.03 | 0.03 | 89 | 1019.3 |
| 20260503033013 | 45 | 97 | 0.0 | 0.0 | 0.00 | 0.03 | 0.03 | 89 | 1019.3 |
| 20260503032503 | 45 | 97 | 0.0 | 0.0 | 0.00 | 0.03 | 0.03 | 89 | 1019.3 |
| 20260503032005 | 45 | 97 | 0.0 | 0.0 | 0.00 | 0.03 | 0.03 | 89 | 1019.3 |
| 20260503031512 | 46 | 97 | 0.0 | 0.0 | 0.00 | 0.03 | 0.03 | 89 | 1019.4 |
| 20260503031003 | 46 | 97 | 0.0 | 0.0 | 0.00 | 0.03 | 0.03 | 89 | 1019.4 |
| 20260503030503 | 46 | 97 | 0.0 | 0.0 | 0.00 | 0.03 | 0.03 | 89 | 1019.3 |
| 20260503030013 | 46 | 97 | 0.0 | 0.0 | 0.00 | 0.03 | 0.03 | 89 | 1019.2 |
| 20260503025502 | 46 | 97 | 0.0 | 0.0 | 0.00 | 0.03 | 0.03 | 89 | 1019.2 |
| 20260503025002 | 45 | 97 | 0.0 | 0.0 | 0.00 | 0.03 | 0.03 | 89 | 1019.2 |
| 20260503024512 | 45 | 97 | 0.0 | 0.0 | 0.00 | 0.03 | 0.03 | 89 | 1019.1 |
| 20260503024003 | 45 | 97 | 0.0 | 0.0 | 0.00 | 0.03 | 0.03 | 88 | 1019.1 |
| 20260503023504 | 45 | 97 | 0.0 | 0.0 | 0.00 | 0.03 | 0.03 | 88 | 1019.1 |
| 20260503023013 | 45 | 97 | 0.0 | 0.0 | 0.00 | 0.03 | 0.03 | 88 | 1019.0 |
| 20260503022506 | 45 | 97 | 0.0 | 0.0 | 0.00 | 0.03 | 0.03 | 88 | 1019.0 |
| 20260503022003 | 45 | 97 | 0.0 | 0.0 | 0.00 | 0.03 | 0.03 | 88 | 1019.0 |
| 20260503021524 | 45 | 97 | 0.0 | 1.0 | 0.00 | 0.03 | 0.03 | 87 | 1019.0 |
| 20260503021006 | 45 | 97 | 0.0 | 1.0 | 0.00 | 0.03 | 0.03 | 87 | 1019.0 |
| 20260503020505 | 45 | 97 | 0.0 | 3.0 | 0.00 | 0.03 | 0.03 | 87 | 1019.0 |
| 20260503020030 | 45 | 97 | 0.0 | 6.0 | 0.00 | 0.03 | 0.03 | 87 | 1018.8 |
| 20260503015506 | 45 | 97 | 1.0 | 6.0 | 0.00 | 0.03 | 0.03 | 87 | 1018.8 |
| 20260503015007 | 46 | 102 | 2.0 | 4.0 | 0.00 | 0.03 | 0.03 | 87 | 1018.8 |
| 20260503014516 | 46 | 352 | 2.0 | 5.0 | 0.00 | 0.03 | 0.03 | 87 | 1018.9 |
| 20260503014005 | 46 | 5 | 3.0 | 5.0 | 0.00 | 0.03 | 0.03 | 87 | 1019.0 |
| 20260503013503 | 46 | 335 | 2.0 | 4.0 | 0.00 | 0.03 | 0.03 | 87 | 1019.0 |
| 20260503013016 | 47 | 317 | 2.0 | 5.0 | 0.00 | 0.03 | 0.03 | 86 | 1019.0 |
| 20260503012503 | 47 | 355 | 2.0 | 5.0 | 0.00 | 0.03 | 0.03 | 86 | 1018.9 |
| 20260503012005 | 47 | 315 | 1.0 | 4.0 | 0.01 | 0.03 | 0.03 | 86 | 1018.9 |
| 20260503011519 | 47 | 312 | 1.0 | 3.0 | 0.01 | 0.03 | 0.03 | 86 | 1018.9 |
| 20260503011005 | 47 | 311 | 0.0 | 3.0 | 0.02 | 0.03 | 0.03 | 86 | 1018.8 |
| 20260503010507 | 48 | 311 | 0.0 | 3.0 | 0.03 | 0.03 | 0.03 | 85 | 1018.8 |
| 20260503010017 | 48 | 311 | 0.0 | 0.0 | 0.03 | 0.03 | 0.03 | 85 | 1018.6 |
| 20260503005507 | 48 | 311 | 0.0 | 2.0 | 0.03 | 0.03 | 0.03 | 85 | 1018.6 |
| 20260503005004 | 48 | 311 | 0.0 | 2.0 | 0.03 | 0.03 | 0.03 | 84 | 1018.6 |
| 20260503004543 | 48 | 311 | 1.0 | 4.0 | 0.03 | 0.03 | 0.03 | 84 | 1018.6 |
| 20260503004007 | 48 | 311 | 1.0 | 5.0 | 0.03 | 0.03 | 0.03 | 83 | 1018.6 |
| 20260503003513 | 49 | 5 | 2.0 | 5.0 | 0.03 | 0.03 | 0.03 | 83 | 1018.5 |
| 20260503003029 | 49 | 294 | 1.0 | 5.0 | 0.03 | 0.03 | 0.03 | 83 | 1018.6 |
| 20260503002506 | 49 | 274 | 0.0 | 4.0 | 0.03 | 0.03 | 0.03 | 82 | 1018.4 |
| 20260503002006 | 49 | 274 | 0.0 | 4.0 | 0.02 | 0.02 | 0.02 | 81 | 1018.4 |
| 20260503001520 | 50 | 274 | 1.0 | 7.0 | 0.02 | 0.02 | 0.02 | 80 | 1018.3 |
| 20260503001005 | 50 | 257 | 0.0 | 7.0 | 0.01 | 0.01 | 0.01 | 79 | 1018.2 |
| 20260503000504 | 50 | 252 | 1.0 | 7.0 | 0.00 | 0.00 | 0.00 | 77 | 1018.1 |
| 20260503000029 | 51 | 327 | 1.0 | 9.0 | 0.00 | 0.00 | 0.00 | 76 | 1017.6 |
| 20260502235506 | 51 | 321 | 3.0 | 9.0 | 0.00 | 0.00 | 0.00 | 74 | 1017.3 |
| 20260502235008 | 51 | 338 | 3.0 | 9.0 | 0.00 | 0.00 | 0.00 | 73 | 1017.1 |
| 20260502234536 | 51 | 331 | 3.0 | 8.0 | 0.00 | 0.00 | 0.00 | 71 | 1016.9 |
| 20260502234009 | 52 | 5 | 4.0 | 8.0 | 0.00 | 0.00 | 0.00 | 71 | 1016.9 |
| 20260502233509 | 52 | 347 | 3.0 | 15.0 | 0.00 | 0.00 | 0.00 | 70 | 1016.8 |
| 20260502233021 | 52 | 28 | 6.0 | 15.0 | 0.00 | 0.00 | 0.00 | 70 | 1016.7 |
| 20260502232507 | 52 | 342 | 3.0 | 10.0 | 0.00 | 0.00 | 0.00 | 71 | 1016.7 |
| 20260502232007 | 53 | 360 | 4.0 | 11.0 | 0.00 | 0.00 | 0.00 | 70 | 1016.7 |
| 20260502231530 | 53 | 355 | 4.0 | 11.0 | 0.00 | 0.00 | 0.00 | 69 | 1016.6 |
| 20260502231011 | 54 | 333 | 4.0 | 11.0 | 0.00 | 0.00 | 0.00 | 68 | 1016.7 |
| 20260502230507 | 55 | 317 | 6.0 | 10.0 | 0.00 | 0.00 | 0.00 | 64 | 1016.6 |
| 20260502230024 | 55 | 306 | 2.0 | 6.0 | 0.00 | 0.00 | 0.00 | 65 | 1016.5 |
| 20260502225506 | 55 | 348 | 2.0 | 9.0 | 0.00 | 0.00 | 0.00 | 66 | 1016.4 |
| 20260502225005 | 55 | 296 | 3.0 | 11.0 | 0.00 | 0.00 | 0.00 | 59 | 1016.4 |
| 20260502224516 | 56 | 332 | 5.0 | 11.0 | 0.00 | 0.00 | 0.00 | 58 | 1016.4 |
| 20260502224012 | 56 | 334 | 2.0 | 6.0 | 0.00 | 0.00 | 0.00 | 59 | 1016.4 |
| 20260502223504 | 57 | 5 | 2.0 | 8.0 | 0.00 | 0.00 | 0.00 | 58 | 1016.3 |
| 20260502223035 | 58 | 339 | 4.0 | 8.0 | 0.00 | 0.00 | 0.00 | 56 | 1016.3 |
| 20260502222507 | 58 | 355 | 2.0 | 12.0 | 0.00 | 0.00 | 0.00 | 52 | 1016.1 |
| 20260502222007 | 59 | 28 | 7.0 | 12.0 | 0.00 | 0.00 | 0.00 | 50 | 1015.9 |
| 20260502221525 | 59 | 31 | 4.0 | 11.0 | 0.00 | 0.00 | 0.00 | 55 | 1015.8 |
| 20260502221013 | 59 | 23 | 5.0 | 11.0 | 0.00 | 0.00 | 0.00 | 55 | 1015.9 |
| 20260502220503 | 60 | 355 | 6.0 | 10.0 | 0.00 | 0.00 | 0.00 | 50 | 1015.8 |
| 20260502220008 | 61 | 355 | 4.0 | 11.0 | 0.00 | 0.00 | 0.00 | 55 | 1015.6 |
| 20260502215504 | 59 | 338 | 4.0 | 11.0 | 0.00 | 0.00 | 0.00 | 55 | 1015.6 |
| 20260502215002 | 60 | 15 | 5.0 | 10.0 | 0.00 | 0.00 | 0.00 | 51 | 1015.8 |
| 20260502214512 | 60 | 324 | 4.0 | 14.0 | 0.00 | 0.00 | 0.00 | 48 | 1015.7 |
| 20260502214011 | 60 | 338 | 6.0 | 14.0 | 0.00 | 0.00 | 0.00 | 50 | 1015.6 |
| 20260502213507 | 61 | 28 | 6.0 | 15.0 | 0.00 | 0.00 | 0.00 | 54 | 1015.6 |
| 20260502213022 | 60 | 27 | 11.0 | 15.0 | 0.00 | 0.00 | 0.00 | 50 | 1015.7 |
| 20260502212506 | 60 | 343 | 7.0 | 12.0 | 0.00 | 0.00 | 0.00 | 51 | 1015.6 |
| 20260502212006 | 61 | 337 | 6.0 | 12.0 | 0.00 | 0.00 | 0.00 | 54 | 1015.8 |
| 20260502211530 | 61 | 325 | 7.0 | 14.0 | 0.00 | 0.00 | 0.00 | 48 | 1015.9 |
| 20260502211006 | 60 | 316 | 6.0 | 14.0 | 0.00 | 0.00 | 0.00 | 51 | 1016.0 |
| 20260502210513 | 58 | 332 | 5.0 | 15.0 | 0.00 | 0.00 | 0.00 | 52 | 1016.0 |
| 20260502210024 | 59 | 335 | 6.0 | 15.0 | 0.00 | 0.00 | 0.00 | 49 | 1016.0 |
| 20260502205513 | 61 | 329 | 8.0 | 14.0 | 0.00 | 0.00 | 0.00 | 50 | 1015.9 |
| 20260502205009 | 61 | 335 | 5.0 | 13.0 | 0.00 | 0.00 | 0.00 | 48 | 1015.9 |
| 20260502204511 | 61 | 298 | 3.0 | 8.0 | 0.00 | 0.00 | 0.00 | 48 | 1016.0 |
| 20260502204005 | 60 | 326 | 2.0 | 8.0 | 0.00 | 0.00 | 0.00 | 54 | 1016.0 |
| 20260502203506 | 61 | 317 | 1.0 | 8.0 | 0.00 | 0.00 | 0.00 | 51 | 1016.1 |
| 20260502203018 | 63 | 295 | 2.0 | 8.0 | 0.00 | 0.00 | 0.00 | 45 | 1016.1 |
| 20260502202505 | 63 | 272 | 3.0 | 10.0 | 0.00 | 0.00 | 0.00 | 47 | 1016.1 |
| 20260502202007 | 63 | 279 | 4.0 | 12.0 | 0.00 | 0.00 | 0.00 | 51 | 1016.1 |
| 20260502201525 | 61 | 350 | 7.0 | 12.0 | 0.00 | 0.00 | 0.00 | 44 | 1016.2 |
| 20260502201005 | 62 | 324 | 4.0 | 9.0 | 0.00 | 0.00 | 0.00 | 47 | 1016.3 |
| 20260502200506 | 62 | 307 | 1.0 | 8.0 | 0.00 | 0.00 | 0.00 | 54 | 1016.3 |
| 20260502200022 | 61 | 24 | 3.0 | 6.0 | 0.00 | 0.00 | 0.00 | 50 | 1016.4 |
| 20260502195508 | 58 | 267 | 1.0 | 9.0 | 0.00 | 0.00 | 0.00 | 56 | 1016.5 |
| 20260502195002 | 58 | 306 | 4.0 | 11.0 | 0.00 | 0.00 | 0.00 | 49 | 1016.5 |
| 20260502194512 | 58 | 310 | 4.0 | 11.0 | 0.00 | 0.00 | 0.00 | 50 | 1016.4 |
| 20260502194002 | 59 | 336 | 4.0 | 11.0 | 0.00 | 0.00 | 0.00 | 53 | 1016.4 |
| 20260502193506 | 59 | 331 | 4.0 | 12.0 | 0.00 | 0.00 | 0.00 | 56 | 1016.5 |
| 20260502193012 | 60 | 318 | 4.0 | 12.0 | 0.00 | 0.00 | 0.00 | 46 | 1016.6 |
| 20260502192510 | 62 | 22 | 5.0 | 12.0 | 0.00 | 0.00 | 0.00 | 47 | 1016.5 |
| 20260502192007 | 62 | 25 | 6.0 | 11.0 | 0.00 | 0.00 | 0.00 | 48 | 1016.5 |
| 20260502191519 | 62 | 350 | 3.0 | 11.0 | 0.00 | 0.00 | 0.00 | 50 | 1016.6 |
| 20260502191002 | 61 | 342 | 4.0 | 10.0 | 0.00 | 0.00 | 0.00 | 52 | 1016.7 |
| 20260502190502 | 58 | 324 | 4.0 | 10.0 | 0.00 | 0.00 | 0.00 | 49 | 1016.7 |
| 20260502190004 | 58 | 355 | 3.0 | 9.0 | 0.00 | 0.00 | 0.00 | 51 | 1016.7 |
| 20260502185502 | 59 | 315 | 4.0 | 9.0 | 0.00 | 0.00 | 0.00 | 52 | 1016.7 |
| 20260502185002 | 60 | 335 | 2.0 | 10.0 | 0.00 | 0.00 | 0.00 | 46 | 1016.6 |
| 20260502184506 | 60 | 271 | 4.0 | 10.0 | 0.00 | 0.00 | 0.00 | 46 | 1016.6 |
| 20260502184002 | 60 | 333 | 4.0 | 10.0 | 0.00 | 0.00 | 0.00 | 49 | 1016.6 |
| 20260502183503 | 60 | 17 | 5.0 | 10.0 | 0.00 | 0.00 | 0.00 | 43 | 1016.6 |
| 20260502183010 | 61 | 22 | 3.0 | 9.0 | 0.00 | 0.00 | 0.00 | 47 | 1016.6 |
| 20260502182503 | 62 | 297 | 3.0 | 9.0 | 0.00 | 0.00 | 0.00 | 42 | 1016.6 |
| 20260502182005 | 62 | 266 | 3.0 | 8.0 | 0.00 | 0.00 | 0.00 | 47 | 1016.6 |
| 20260502181515 | 61 | 321 | 4.0 | 11.0 | 0.00 | 0.00 | 0.00 | 52 | 1016.6 |
| 20260502181006 | 61 | 297 | 6.0 | 11.0 | 0.00 | 0.00 | 0.00 | 48 | 1016.6 |
| 20260502180507 | 62 | 284 | 3.0 | 11.0 | 0.00 | 0.00 | 0.00 | 48 | 1016.7 |
| 20260502170509 | 61 | 25 | 4.0 | 12.0 | 0.00 | 0.00 | 0.00 | 54 | 1017.2 |
| 20260502164011 | 61 | 313 | 1.0 | 10.0 | 0.00 | 0.00 | 0.00 | 46 | 1017.3 |
| 20260502163502 | 61 | 92 | 3.0 | 12.0 | 0.00 | 0.00 | 0.00 | 43 | 1017.3 |
| 20260502163016 | 61 | 334 | 7.0 | 12.0 | 0.00 | 0.00 | 0.00 | 41 | 1017.4 |
| 20260502162504 | 60 | 355 | 4.0 | 12.0 | 0.00 | 0.00 | 0.00 | 47 | 1017.4 |
| 20260502162006 | 60 | 5 | 3.0 | 11.0 | 0.00 | 0.00 | 0.00 | 47 | 1017.5 |
| 20260502161520 | 60 | 36 | 4.0 | 11.0 | 0.00 | 0.00 | 0.00 | 46 | 1017.6 |
| 20260502161003 | 60 | 5 | 4.0 | 10.0 | 0.00 | 0.00 | 0.00 | 52 | 1017.6 |
| 20260502160503 | 59 | 5 | 4.0 | 7.0 | 0.00 | 0.00 | 0.00 | 51 | 1017.5 |
| 20260502152010 | 59 | 25 | 5.0 | 10.0 | 0.00 | 0.00 | 0.00 | 54 | 1017.5 |
| 20260502151506 | 58 | 19 | 3.0 | 10.0 | 0.00 | 0.00 | 0.00 | 52 | 1017.4 |
| 20260502151002 | 57 | 336 | 4.0 | 11.0 | 0.00 | 0.00 | 0.00 | 52 | 1017.4 |
| 20260502150502 | 57 | 311 | 7.0 | 11.0 | 0.00 | 0.00 | 0.00 | 51 | 1017.4 |
| 20260502130504 | 49 | 232 | 0.0 | 2.0 | 0.00 | 0.00 | 0.00 | 87 | 1017.3 |
| 20260502123507 | 45 | 323 | 0.0 | 1.0 | 0.00 | 0.00 | 0.00 | 93 | 1017.2 |
| 20260502123017 | 44 | 323 | 0.0 | 1.0 | 0.00 | 0.00 | 0.00 | 92 | 1017.1 |
| 20260502122506 | 43 | 323 | 0.0 | 0.0 | 0.00 | 0.00 | 0.00 | 92 | 1017.1 |
| 20260502122003 | 43 | 323 | 0.0 | 1.0 | 0.00 | 0.00 | 0.00 | 92 | 1017.1 |
| 20260502121516 | 42 | 323 | 0.0 | 1.0 | 0.00 | 0.00 | 0.00 | 92 | 1017.0 |
| 20260502121003 | 42 | 323 | 0.0 | 2.0 | 0.00 | 0.00 | 0.00 | 92 | 1017.1 |
| 20260502120505 | 42 | 323 | 0.0 | 2.0 | 0.00 | 0.00 | 0.00 | 92 | 1017.1 |
| 20260502115503 | 41 | 323 | 0.0 | 2.0 | 0.00 | 0.00 | 0.00 | 91 | 1017.0 |
| 20260502115003 | 40 | 323 | 0.0 | 1.0 | 0.00 | 0.00 | 0.00 | 91 | 1017.0 |
| 20260502114506 | 40 | 323 | 0.0 | 1.0 | 0.00 | 0.00 | 0.00 | 90 | 1016.8 |
| 20260502114006 | 39 | 323 | 0.0 | 0.0 | 0.00 | 0.00 | 0.00 | 90 | 1016.8 |
| 20260502113506 | 39 | 323 | 0.0 | 0.0 | 0.00 | 0.00 | 0.00 | 89 | 1016.6 |
| 20260502113014 | 39 | 323 | 0.0 | 0.0 | 0.00 | 0.00 | 0.00 | 89 | 1016.5 |
| 20260502112506 | 39 | 323 | 0.0 | 0.0 | 0.00 | 0.00 | 0.00 | 89 | 1016.4 |
| 20260502112004 | 39 | 323 | 0.0 | 0.0 | 0.00 | 0.00 | 0.00 | 89 | 1016.5 |
| 20260502111518 | 39 | 323 | 0.0 | 0.0 | 0.00 | 0.00 | 0.00 | 89 | 1016.4 |
| 20260502111005 | 39 | 323 | 0.0 | 1.0 | 0.00 | 0.00 | 0.00 | 89 | 1016.6 |
| 20260502110505 | 40 | 323 | 0.0 | 1.0 | 0.00 | 0.00 | 0.00 | 89 | 1016.6 |
| 20260502110002 | 40 | 323 | 0.0 | 1.0 | 0.00 | 0.00 | 0.00 | 89 | 1016.6 |
| 20260502105502 | 40 | 323 | 0.0 | 1.0 | 0.00 | 0.00 | 0.00 | 89 | 1016.7 |
| 20260502105003 | 40 | 323 | 0.0 | 0.0 | 0.00 | 0.00 | 0.00 | 89 | 1016.7 |
| 20260502104513 | 40 | 323 | 0.0 | 0.0 | 0.00 | 0.00 | 0.00 | 89 | 1016.6 |
| 20260502104002 | 40 | 323 | 0.0 | 0.0 | 0.00 | 0.00 | 0.00 | 88 | 1016.5 |
| 20260502103502 | 40 | 323 | 0.0 | 0.0 | 0.00 | 0.00 | 0.00 | 88 | 1016.5 |
| 20260502103010 | 40 | 323 | 0.0 | 0.0 | 0.00 | 0.00 | 0.00 | 88 | 1016.5 |
| 20260502102506 | 40 | 323 | 0.0 | 0.0 | 0.00 | 0.00 | 0.00 | 88 | 1016.4 |
| 20260502102006 | 40 | 323 | 0.0 | 0.0 | 0.00 | 0.00 | 0.00 | 88 | 1016.3 |
| 20260502101520 | 40 | 323 | 0.0 | 0.0 | 0.00 | 0.00 | 0.00 | 88 | 1016.3 |
| 20260502101005 | 40 | 323 | 0.0 | 0.0 | 0.00 | 0.00 | 0.00 | 88 | 1016.3 |
| 20260502100505 | 40 | 323 | 0.0 | 0.0 | 0.00 | 0.00 | 0.00 | 88 | 1016.2 |
| 20260502091514 | 41 | 323 | 0.0 | 0.0 | 0.00 | 0.00 | 0.00 | 88 | 1015.8 |
| 20260502091006 | 41 | 323 | 0.0 | 0.0 | 0.00 | 0.00 | 0.00 | 87 | 1015.9 |
| 20260502090505 | 41 | 323 | 0.0 | 0.0 | 0.00 | 0.00 | 0.00 | 87 | 1015.9 |
| 20260502071525 | 41 | 323 | 0.0 | 2.0 | 0.00 | 0.00 | 0.00 | 86 | 1016.8 |
| 20260502071006 | 41 | 323 | 0.0 | 3.0 | 0.00 | 0.00 | 0.00 | 85 | 1016.7 |
| 20260502070510 | 41 | 323 | 2.0 | 3.0 | 0.00 | 0.00 | 0.00 | 85 | 1016.6 |
| 20260502070018 | 41 | 323 | 2.0 | 3.0 | 0.00 | 0.00 | 0.00 | 84 | 1016.6 |
| 20260502065504 | 41 | 323 | 0.0 | 0.0 | 0.00 | 0.00 | 0.00 | 84 | 1016.7 |
| 20260502065003 | 41 | 323 | 0.0 | 0.0 | 0.00 | 0.00 | 0.00 | 84 | 1016.9 |
| 20260502064517 | 41 | 323 | 0.0 | 0.0 | 0.00 | 0.00 | 0.00 | 83 | 1016.9 |
| 20260502064007 | 42 | 323 | 0.0 | 0.0 | 0.00 | 0.00 | 0.00 | 83 | 1016.9 |
| 20260502063507 | 42 | 323 | 0.0 | 0.0 | 0.00 | 0.00 | 0.00 | 83 | 1016.9 |
| 20260502063020 | 42 | 323 | 0.0 | 0.0 | 0.00 | 0.00 | 0.00 | 83 | 1016.9 |